DELTA 1 DEB, 40752

Orbit data source: Space-Track

DELTA 1 DEB, 40752 is space debris in LEO originally from a launch on Thu, 29 Jul 1976 UTC launched from the Air Force Western Test Range (AFWTR). Debris objects in space refer to the collection of defunct objects orbiting the Earth. Examples of debris include non-operational satellites, rocket bodies, and fragments generated from explosions, collisions, or faulty payload assembly.

Loading next visibility...
DELTA 1 DEB details
Identifier
40752, 1976-077FV
Orbit
LEO
Last TLE update6 days ago
Origin
Flag of USGSFC (US)
ManufacturerUnknown
MissionSpacecraft
Bus & MotorUnknown
MassUnknown
Launch date (UTC)
1976-07-29 (48 years ago)
Launch vehicleUnknown
Launch site
Air Force Western Test Range (AFWTR)
Object type
Payload
Rocket body
Debris
Shape & HBRUnknown
Radar Cross SectionSmall (<0.1 m²)

Expand to show TLE details & history

TLE from 6 days ago
0 DELTA 1 DEB
1 40752U 76077FV  24355.92604330 -.00000001  00000-0  62336-3 0  9996
2 40752 102.1857 153.1816 0565704 225.7664 298.5661 11.37618612460214
Epoch: 2024-12-20T22:13Z
Definitive object data (Epoch: 2024-12-20T22:13:30.141Z)
Latitude21.05066°
Longitude-85.43378°
Altitude1,770.502 km
Speed7.082 km/s
True Right ascension22h 31m 42s
True Declination20° 56' 60"
Sunlit
Object was in daylight at TLE epoch
Visualization TLE readout
Latitude48.65184°
Longitude80.36304°
Altitude2,439.207 km
Speed6.541 km/s
Apparent Right ascension06h 20m 10s
Apparent Declination22° 40' 42"
Sunlit
Object is in daylight
Visualization observer readout
Local Sidereal Time14:06:30
Azimuth304.195° NW
Elevation-3.973°
Doppler factor1
Orbital elements
Apogee altitude2,442.841 km
Perigee altitude1,498.263 km
Semi-major axis8,348.689 km
Eccentricity0.0565704
Inclination102.1857°
RAAN153.1816°
Arg. of periapsis225.7664°
True anomaly292.68418°
Mean anomaly298.5661°
Eccentric anomaly295.64412°
Mean motion2.84522 °/min
BSTAR0.00062336
Orbital period126.53 mins
Loading maneuver chart data...
Loading historical data...
Loading historical data...
Loading historical data...
Loading historical data...
Loading historical data...
Loading historical data...
Loading historical data...

DELTA 1 DEB Visibility forecast

Observer location: undefined°, undefined

Span
Click to sort rows by Start time (UTC) header in descending order
Start Az.
Max El. time (UTC)
Max El. Az.
Max El.
End time (UTC)
End Az.
11 mins2024-12-26 21:32:36.799Z50.586° ENE2024-12-26 21:38:36.799Z87.365° E16.021°2024-12-26 21:43:36.799Z120.566° SE
18 mins2024-12-26 23:34:36.799Z19.092° NNE2024-12-26 23:44:36.799Z153.506° SSE44.735°2024-12-26 23:52:36.799Z196.92° SSW
14 mins2024-12-27 01:39:36.799Z357.078° N2024-12-27 01:46:36.799Z312.107° NW24.331°2024-12-27 01:53:36.799Z263.393° W
14 mins2024-12-27 07:34:36.799Z73.679° E2024-12-27 07:40:36.799Z43.374° NE18.654°2024-12-27 07:48:36.799Z2.38° NNE
23 mins2024-12-27 09:30:36.799Z137.283° SSE2024-12-27 09:41:36.799Z71.822° E41.308°2024-12-27 09:53:36.799Z348.618° N
22 mins2024-12-27 11:35:36.799Z197.749° SSW2024-12-27 11:45:36.799Z258.775° W34.551°2024-12-27 11:57:36.799Z330.235° NNW
|